• Processing (Info)

  • MPEC 2001-B37 : 2001 AO2

    The following Minor Planet Electronic Circular may be linked-to from your own Web pages, but must not otherwise be redistributed electronically.

    A form allowing access to any MPEC is at the bottom of this page.


    Read MPEC 2001-B36 Read MPEC 2001-B38


    M.P.E.C. 2001-B37                                Issued 2001 Jan. 25, 19:46 UT
    
         The Minor Planet Electronic Circulars contain information on unusual
             minor planets and routine data on comets.  They are published
       on behalf of Commission 20 of the International Astronomical Union by the
              Minor Planet Center, Smithsonian Astrophysical Observatory,
                              Cambridge, MA 02138, U.S.A.
    
                 Prepared using the Tamkin Foundation Computer Network
    
                                  MPC@CFA.HARVARD.EDU
              URL http://cfa-www.harvard.edu/iau/mpc.html  ISSN 1523-6714
    
                                       2001 AO2
    
    Additional observations:
         K01A02O  C2001 01 21.24267 07 03 37.40 +32 26 03.3          18.3        704
         K01A02O  C2001 01 21.25796 07 03 35.93 +32 26 32.9          19.0        704
         K01A02O  C2001 01 21.27285 07 03 34.53 +32 27 03.1          19.2        704
         K01A02O  C2001 01 21.28810 07 03 33.00 +32 27 34.0          18.1        704
         K01A02O  C2001 01 21.30364 07 03 31.63 +32 28 05.5          18.6        704
         K01A02O  C2001 01 24.17529 06 59 16.85 +34 04 20.4          19.3        704
         K01A02O  C2001 01 24.19045 06 59 15.50 +34 04 50.8          19.0        704
         K01A02O  C2001 01 24.20530 06 59 14.05 +34 05 20.4          18.7        704
         K01A02O  C2001 01 24.22054 06 59 12.59 +34 05 51.7          19.1        704
    
    Observer details:
    704 Lincoln Laboratory ETS, New Mexico.  Observers M. Blythe, F. Shelly,
        M. Bezpalko, R. Huber, L. Manguso, S. Adams.  Measurers J. Stuart,
        R. Sayer, J. B. Evans, H. Viggh.  1.0-m f/2.15 reflector + CCD.
    
    Orbital elements:
    2001 AO2
    Epoch 2001 Jan. 11.0 TT = JDT 2451920.5                 Spahr
    M 342.61425              (2000.0)            P               Q
    n   0.18395577     Peri.   77.45010     -0.94349362     +0.04320170
    a   3.0619195      Node   104.31076     -0.14673524     -0.94343747
    e   0.6070794      Incl.   19.82112     +0.29713390     -0.32872383
    P   5.36           H   17.6           G   0.15
    From 23 observations 2001 Jan. 3-24.
    
    Ephemeris:
    2001 AO2                 a,e,i = 3.06, 0.61, 20                  q = 1.2031
    Date    TT    R. A. (2000) Decl.     Delta      r     Elong.  Phase     V
    2001 01 11    07 17.84   +26 55.6    0.647    1.628   174.2     3.5    18.0
    2001 01 21    07 03.98   +32 17.9    0.596    1.558   160.2    12.3    18.2
    2001 01 31    06 49.39   +37 51.5    0.569    1.490   145.9    21.8    18.3
    2001 02 10    06 37.49   +43 04.7    0.561    1.427   132.5    30.6    18.4
    2001 02 20    06 31.64   +47 40.4    0.566    1.369   121.0    38.3    18.6
    2001 03 02    06 34.68   +51 35.4    0.577    1.317   111.5    44.4    18.7
    2001 03 12    06 48.51   +54 51.7    0.590    1.274   104.1    49.2    18.8
    2001 03 22    07 14.19   +57 25.4    0.602    1.240    98.7    52.6    18.9
    2001 04 01    07 52.09   +59 02.5    0.610    1.216    95.1    54.9    19.0
    2001 04 11    08 40.49   +59 21.0    0.616    1.204    93.1    56.2    19.0
    2001 04 21    09 34.74   +57 56.5    0.621    1.205    92.6    56.4    19.0
    2001 05 01    10 28.63   +54 34.9    0.627    1.218    93.4    55.7    19.0
    2001 05 11    11 17.29   +49 21.6    0.638    1.242    95.2    54.1    19.1
    2001 05 21    11 58.91   +42 38.3    0.658    1.278    97.6    51.7    19.1
    2001 05 31    12 34.14   +34 56.9    0.691    1.322   100.0    49.0    19.2
    2001 06 10    13 04.34   +26 54.1    0.740    1.374   101.9    46.3    19.4
    2001 06 20    13 30.87   +19 02.5    0.808    1.433   103.0    43.7    19.6
    2001 06 30    13 54.92   +11 45.5    0.895    1.497   102.9    41.4    19.9
    2001 07 10    14 17.29   +05 15.9    1.000    1.564   101.8    39.5    20.1
    2001 07 20    14 38.54   -00 22.8    1.121    1.635    99.7    37.8    20.4
    2001 07 30    14 59.12   -05 12.8    1.257    1.707    96.8    36.2    20.7
    2001 08 09    15 19.27   -09 18.8    1.406    1.781    93.4    34.6    21.0
    2001 08 19    15 39.17   -12 46.4    1.565    1.856    89.5    33.0    21.3
    2001 08 29    15 58.97   -15 40.8    1.733    1.931    85.2    31.4    21.6
    2001 09 08    16 18.69   -18 06.4    1.907    2.006    80.6    29.7    21.8
    2001 09 18    16 38.39   -20 07.2    2.086    2.081    75.8    27.9    22.0
    
    Timothy B. Spahr             (C) Copyright 2001 MPC           M.P.E.C. 2001-B37
    

    Read MPEC 2001-B36 Read MPEC 2001-B38


    MPEC number:

    Enter an MPEC number in one of the following forms:

    • 1997-B01 (the full form)
    • J97B01 (the packed version of the full form)
    • B01 (the abbreviated form)